This is the latest recevied weather packets stored in our database for station/object W8KVG. If no packets are shown the sender has not sent any weather packets the latest 1 day(s).
| Time | Temp. | Humidity | Pressure | Rain* | Wind** | Luminosity | Snow |
|---|---|---|---|---|---|---|---|
| 1778029395 | 20° C | 56% | 1006.6 hPa | 0 mm | 0 m/s | 0 W/m² | - |
| 1778029092 | 20° C | 55% | 1006.6 hPa | 0 mm | 0.89 m/s, 224° | 0 W/m² | - |
| 1778028789 | 20° C | 55% | 1006.5 hPa | 0 mm | 1.34 m/s, 169° | 0 W/m² | - |
| 1778028485 | 20° C | 55% | 1006.6 hPa | 0 mm | 2.68 m/s, 181° | 0 W/m² | - |
| 1778028183 | 20° C | 56% | 1006.5 hPa | 0 mm | 3.13 m/s, 195° | 0 W/m² | - |
| 1778027878 | 20° C | 57% | 1006.4 hPa | 0 mm | 1.34 m/s, 186° | 0 W/m² | - |
| 1778027575 | 20° C | 57% | 1006.5 hPa | 0 mm | 0 m/s | 0 W/m² | - |
| 1778027271 | 20.56° C | 56% | 1006.6 hPa | 0 mm | 0 m/s | 1 W/m² | - |
| 1778026968 | 20.56° C | 55% | 1006.5 hPa | 0 mm | 0.45 m/s, 222° | 1 W/m² | - |
| 1778026663 | 20.56° C | 56% | 1006.5 hPa | 0 mm | 0 m/s | 1 W/m² | - |
| 1778026361 | 20.56° C | 56% | 1006.5 hPa | 0 mm | 0 m/s | 2 W/m² | - |
| 1778026058 | 20.56° C | 56% | 1007 hPa | 0 mm | 0.89 m/s, 224° | 2 W/m² | - |
| 1778025755 | 20.56° C | 56% | 1007 hPa | 0 mm | 1.34 m/s, 192° | 3 W/m² | - |
| 1778025452 | 20.56° C | 57% | 1006.9 hPa | 0 mm | 0 m/s | 4 W/m² | - |
| 1778025150 | 20.56° C | 57% | 1006.8 hPa | 0 mm | 1.34 m/s, 207° | 4 W/m² | - |
| 1778024846 | 20.56° C | 57% | 1006.9 hPa | 0 mm | 1.79 m/s, 200° | 7 W/m² | - |
| 1778024544 | 20.56° C | 58% | 1006.8 hPa | 0 mm | 0.45 m/s, 208° | 13 W/m² | - |
| 1778024240 | 20.56° C | 58% | 1006.4 hPa | 0 mm | 0 m/s | 12 W/m² | - |
| 1778023939 | 20.56° C | 59% | 1006.4 hPa | 0 mm | 0.89 m/s, 243° | 14 W/m² | - |
| 1778023635 | 20.56° C | 58% | 1006.5 hPa | 0 mm | 0 m/s | 19 W/m² | - |
| 1778023333 | 20.56° C | 58% | 1006.6 hPa | 0 mm | 0.89 m/s, 250° | 25 W/m² | - |
| 1778023029 | 20.56° C | 59% | 1006.6 hPa | 0 mm | 0 m/s | 21 W/m² | - |
| 1778022729 | 21.11° C | 58% | 1006.6 hPa | 0 mm | 0.89 m/s, 196° | 17 W/m² | - |
| 1778022426 | 21.11° C | 57% | 1006.6 hPa | 0 mm | 0 m/s | 16 W/m² | - |
| 1778022122 | 21.11° C | 57% | 1006.8 hPa | 0 mm | 2.24 m/s, 195° | 30 W/m² | - |
* Rain latest hour (hover to see other rain measurements)
** Current wind speed in m/s (hover to see current wind gust speed)